User: anonymous   Login
Location: Unspecified
(0.0000°N, 0.0000°E)
Time: 06:16:14
(UTC+00:00)
Language:

CANX 3A (UNIBRITE) - Orbit

View from above orbital plane
View from above orbital plane
View from above satellite
View from above satellite

Ground track
Ground track

The orbit data is extracted from the following two-line orbital elements,

1 39092U 13009G   15028.46568656  .00000138  00000-0  64271-4 0  5899
2 39092 098.6092 227.3390 0009274 007.7118 352.4208 14.34690331100628
Epoch (UTC): 28 January 2015 11:10:35
Eccentricity: 0.0009274
inclination: 98.6092°
perigee height: 769 km
apogee height: 783 km
right ascension of ascending node: 227.3390°
argument of perigee: 7.7118°
revolutions per day: 14.34690331
mean anomaly at epoch: 352.4208°
orbit number at epoch: 10062

The dashed part of the orbit path shows where the satellite is in the earth's shadow,  

DLR